{"data":{"norad_id":66124,"epoch":"2026-05-24T23:50:01.178016Z","epoch_age_seconds":78882,"freshness":"FRESH","line1":"1 66124U 25237L   26144.99306919  .00009537  00000+0  33360-3 0  9992","line2":"2 66124  53.1602  45.1448 0001223  93.2267 266.8874 15.30212549 34292","mean_motion":15.30212549,"eccentricity":0.0001223,"inclination_deg":53.1602,"raan_deg":45.1448,"arg_perigee_deg":93.2267,"mean_anomaly_deg":266.8874,"bstar":0.0003336,"rev_number":3429,"period_min":94.1045739653,"perigee_km":474.33944024771,"apogee_km":476.01576099902,"semimajor_km":6853.3146006234,"source":"CELESTRAK","updated_at":"2026-05-25T13:38:21.063636Z"}}